TimePST,TemperatureF,Dew PointF,Humidity,Sea Level PressureIn,VisibilityMPH,Wind Direction,Wind SpeedMPH,Gust SpeedMPH,PrecipitationIn,Events,Conditions,WindDirDegrees,DateUTC
12:53 AM,36.0,28.0,73,29.87,10.0,WSW,9.2,-,N/A,,Clear,250,2013-01-10 08:53:00
1:53 AM,35.1,27.0,72,29.90,10.0,Calm,Calm,-,N/A,,Clear,0,2013-01-10 09:53:00
2:53 AM,34.0,26.1,73,29.90,10.0,Calm,Calm,-,N/A,,Clear,0,2013-01-10 10:53:00
3:53 AM,32.0,26.1,79,29.90,10.0,South,5.8,-,N/A,,Clear,190,2013-01-10 11:53:00
4:53 AM,32.0,25.0,75,29.91,10.0,Calm,Calm,-,N/A,,Clear,0,2013-01-10 12:53:00
5:53 AM,28.9,25.0,85,29.92,10.0,Calm,Calm,-,N/A,,Clear,0,2013-01-10 13:53:00
6:53 AM,28.0,25.0,88,29.94,10.0,Calm,Calm,-,N/A,,Mostly Cloudy,0,2013-01-10 14:53:00
7:53 AM,27.0,23.0,85,29.96,10.0,NE,3.5,-,N/A,,Partly Cloudy,40,2013-01-10 15:53:00
8:53 AM,30.0,24.1,79,29.98,10.0,Variable,3.5,-,N/A,,Clear,0,2013-01-10 16:53:00
9:53 AM,33.1,27.0,78,29.98,10.0,SE,5.8,-,N/A,,Overcast,140,2013-01-10 17:53:00
10:53 AM,36.0,28.0,73,29.99,10.0,Calm,Calm,-,N/A,,Mostly Cloudy,0,2013-01-10 18:53:00
11:53 AM,39.0,26.1,60,29.97,10.0,West,5.8,-,N/A,,Overcast,260,2013-01-10 19:53:00
12:53 PM,41.0,25.0,53,29.96,10.0,West,6.9,-,N/A,,Overcast,270,2013-01-10 20:53:00
1:53 PM,42.1,25.0,51,29.96,10.0,Calm,Calm,-,N/A,,Overcast,0,2013-01-10 21:53:00
2:53 PM,41.0,25.0,53,29.97,10.0,NE,3.5,-,N/A,,Overcast,50,2013-01-10 22:53:00
3:53 PM,39.9,26.1,58,29.98,10.0,NE,6.9,-,N/A,,Mostly Cloudy,50,2013-01-10 23:53:00
4:53 PM,37.0,24.1,59,29.99,10.0,ENE,4.6,-,N/A,,Overcast,70,2013-01-11 00:53:00
5:53 PM,35.1,26.1,70,30.00,10.0,Calm,Calm,-,N/A,,Overcast,0,2013-01-11 01:53:00
6:53 PM,35.1,21.9,59,30.00,10.0,Calm,Calm,-,N/A,,Overcast,0,2013-01-11 02:53:00
8:53 PM,35.1,21.0,57,30.01,10.0,WNW,4.6,-,N/A,,Overcast,300,2013-01-11 04:53:00
9:53 PM,34.0,21.0,59,30.02,10.0,NW,8.1,-,N/A,,Overcast,320,2013-01-11 05:53:00
10:53 PM,33.1,19.0,56,30.03,10.0,NW,12.7,-,N/A,,Overcast,320,2013-01-11 06:53:00
11:53 PM,30.9,19.0,61,30.05,10.0,WNW,9.2,-,N/A,,Mostly Cloudy,300,2013-01-11 07:53:00